Location: Nied?wied?
(53.3665°N, 14.8184°E)
Time: 23:25:38
(UTC+00:00)

CZ-4B R/B - Pass Details

Date: 03 March 2021
Orbit: 388 x 455 km, 97.6° (Epoch: 12 April)

Event Time Altitude Azimuth Distance (km) Brightness Sun altitude
Rises 18:38:09 0° 359° (N) 2,296 5.2 -17.9°
Reaches altitude 10° 18:40:45 10° 334° (NNW) 1,436 4.5 -18.3°
Maximum altitude 18:42:28 14° 299° (WNW) 1,206 4.6 -18.5°
Drops below altitude 10° 18:44:12 10° 265° (W) 1,436 5.0 -18.8°
Sets 18:46:49 0° 239° (WSW) 2,296 5.7 -19.2°
